Regional Weather Roundup
Issued by NWS Midland/Odessa, TX

Skip options and go directly to product.
Home | Oldest Version | Previous Version | Current Version | All | Graphics & Text | Save Text | Print | Product List | Glossary On

Skip product version selection by date and time.   
077
ASUS44 KMAF 270510
RWRMAF
MIDLAND AREA WEATHER ROUNDUP
NATIONAL WEATHER SERVICE MIDLAND TX
1100 PM CST WED NOV 26 2014

...IN SOUTHWEST TEXAS AND SOUTHEAST NEW MEXICO...

CITY           SKY/WX    TMP DP  RH WIND       PRES   REMARKS
ALPINE         CLEAR     40  23  49 SW9       30.41S WCI  34
ANDREWS        FAIR      40  30  67 SE6       30.37R WCI  36
ARTESIA        NOT AVBL
BIG SPRING     CLEAR     46  32  58 E8        30.39R
CARLSBAD       CLEAR     46  26  45 S9        30.34R
DRYDEN           N/A     51  26  37 N9        30.32R
FORT STOCKTON  CLEAR     49  24  37 SE9       30.34R
GUAD PASS      NOT AVBL
HOBBS          CLEAR     39  28  65 CALM      30.37R
MARFA          CLEAR     34  19  55 N6        30.38S WCI  29
MIDLAND AIRPK  CLEAR     48  33  55 E7        30.37R
MIDLAND INTL   CLEAR     47  32  56 E12       30.36R
ODESSA         CLEAR     43  30  60 E8        30.36R WCI  38
PECOS          CLEAR     46  25  43 CALM      30.34R
PRESIDIO       FAIR      52  22  31 N10       30.32R
SEMINOLE       CLEAR     39  30  68 E3        30.38R
SNYDER         CLEAR     42  33  72 E7        30.40R WCI  37
WINK           CLEAR     41  25  53 NE3       30.34R
$$
...OTHER STATIONS IN TEXAS...

CITY           SKY/WX    TMP DP  RH WIND       PRES   REMARKS
ABILENE        CLEAR     45  34  65 E6        30.40R
AMARILLO       PTCLDY    34  22  61 E8        30.40R WCI  27
AUSTIN         CLEAR     46  37  71 CALM      30.34R
BROWNSVILLE    CLEAR     54  53  97 SE3       30.32R
CORPUS CHRISTI CLEAR     54  51  90 S7        30.30R
DALLAS FTW     CLEAR     47  32  56 N13       30.37R
DEL RIO        CLEAR     54  33  45 NE7       30.30R
EL PASO        PTCLDY    49  19  30 CALM      30.33R
HOUSTON INT    CLEAR     51  43  74 CALM      30.32R
LUBBOCK        CLEAR     38  24  57 E8        30.38R WCI  32
SAN ANGELO     CLEAR     42  33  70 E3        30.37R
SAN ANTONIO    CLEAR     57  35  43 N3        30.32R
WACO           CLEAR     46  37  71 N8        30.37R
WICHITA FALLS  NOT AVBL
$$
...OTHER LOCATIONS IN NEW MEXICO...

CITY           SKY/WX    TMP DP  RH WIND       PRES   REMARKS
ALAMAGORDO     CLEAR     39  19  45 MISG      30.34R
ALBUQUERQUE    PTCLDY    49  23  36 NW5       30.41R
CANNON AFB     PTCLDY    36  25  65 E7        30.37R WCI  30
CLOVIS         PTCLDY    32  21  64 E7        30.38R WCI  26
HOLLOMAN AFB   CLEAR     40  20  43 N8        30.32R WCI  35
ROSWELL        CLEAR     42  26  53 S9        30.34R WCI  37
RUIDOSO        CLEAR     46  19  34 NW9       30.42R
SANTA FE       PTCLDY    38  20  48 N12       30.40S WCI  30
TRUTH OR CONSE CLEAR     43  20  39 CALM      30.36R
TUCUMCARI      CLEAR     32  25  75 E7        30.36R WCI  26
$$

USA.gov is the U.S. government's official web portal to all federal, state and local government web resources and services.